GW5033 Weather Reports


time (UTC)temp
C
wind
direction
speed
KPH
gust
KPH
rain 1hr
cm
rain 24hr
cm
rain mn
cm
humidity
%
barometer
mb
20260506212011 5 335 1.6 4.8 0.10 2.57 1.91 95 1006.6
20260506211527 5 288 0.0 4.8 0.08 2.54 1.88 95 1006.5
20260506211006 5 18 1.6 4.8 0.08 2.54 1.88 95 1006.5
20260506210503 5 289 0.0 4.8 0.08 2.57 1.88 95 1006.5
20260506210019 5 311 0.0 8.0 0.08 2.57 1.88 95 1006.6
20260506205509 5 300 1.6 8.0 0.05 2.54 1.85 95 1006.7
20260506205007 5 347 1.6 6.4 0.05 2.54 1.85 95 1006.6
20260506204520 5 6 1.6 6.4 0.05 2.57 1.85 95 1006.6
20260506204006 5 321 1.6 3.2 0.03 2.54 1.83 95 1006.7
20260506203507 5 333 1.6 4.8 0.03 2.54 1.83 95 1006.6
20260506203024 5 341 1.6 4.8 0.03 2.54 1.83 95 1006.8
20260506202509 5 285 1.6 9.7 0.03 2.54 1.83 95 1006.7
20260506202010 5 312 1.6 9.7 0.00 2.51 1.80 95 1006.7
20260506201529 5 286 3.2 8.0 0.03 2.54 1.80 95 1006.7
20260506201003 5 300 1.6 4.8 0.05 2.54 1.80 95 1006.6
20260506200504 5 314 3.2 4.8 0.05 2.54 1.80 95 1006.6
20260506200013 5 297 0.0 4.8 0.05 2.54 1.80 94 1006.5
20260506195504 5 278 1.6 3.2 0.08 2.54 1.80 95 1006.5
20260506195004 5 278 1.6 1.6 0.08 2.54 1.80 95 1006.5
20260506194518 5 82 0.0 1.6 0.10 2.57 1.80 95 1006.4
20260506194007 5 82 0.0 1.6 0.10 2.57 1.80 95 1006.4
20260506193503 5 82 0.0 1.6 0.10 2.57 1.80 96 1006.5
20260506193004 5 73 0.0 1.6 0.10 2.59 1.80 96 1006.5
20260506192503 5 73 0.0 1.6 0.10 2.67 1.80 96 1006.5
20260506192003 5 72 0.0 4.8 0.10 2.74 1.80 95 1006.6
20260506191506 5 93 1.6 4.8 0.10 2.72 1.78 95 1006.6
20260506191006 5 316 1.6 4.8 0.08 2.67 1.75 95 1006.6
20260506190504 5 281 0.0 4.8 0.08 2.67 1.75 95 1006.6
20260506190013 5 12 0.0 4.8 0.08 2.67 1.75 95 1006.7
20260506185504 5 303 1.6 4.8 0.05 2.64 1.73 95 1006.7
20260506185003 5 326 0.0 1.6 0.05 2.64 1.73 95 1006.7
20260506184536 5 309 0.0 3.2 0.05 2.64 1.70 95 1006.7
20260506184010 5 310 1.6 3.2 0.05 2.64 1.70 95 1006.7
20260506183506 5 287 1.6 3.2 0.08 2.64 1.70 95 1006.7
20260506183028 5 284 0.0 4.8 0.10 2.64 1.70 95 1006.7
20260506182505 4 318 1.6 4.8 0.10 2.64 1.70 95 1006.7
20260506182005 4 321 3.2 4.8 0.13 2.64 1.70 95 1006.7
20260506181508 5 300 1.6 4.8 0.13 2.62 1.68 95 1006.8
20260506181006 5 296 1.6 6.4 0.13 2.62 1.68 95 1006.8
20260506180504 5 283 0.0 6.4 0.15 2.62 1.68 95 1006.9
20260506180006 5 302 3.2 6.4 0.18 2.62 1.68 94 1007.0
20260506175504 5 293 1.6 3.2 0.18 2.62 1.68 95 1007.1
20260506175003 5 326 0.0 1.6 0.20 2.62 1.68 95 1007.1
20260506174511 5 325 0.0 1.6 0.18 2.59 1.65 95 1007.2
20260506174003 5 27 0.0 3.2 0.20 2.59 1.65 95 1007.3
20260506173505 5 27 1.6 3.2 0.18 2.57 1.63 95 1007.4
20260506173015 5 14 0.0 3.2 0.18 2.54 1.60 95 1007.6
20260506172506 5 14 1.6 3.2 0.20 2.54 1.60 95 1007.4
20260506172008 5 309 0.0 1.6 0.18 2.51 1.57 95 1007.5
20260506171518 5 284 0.0 4.8 0.18 2.49 1.55 95 1007.5
20260506171008 5 284 0.0 4.8 0.20 2.49 1.55 95 1007.5
20260506170507 5 20 1.6 8.0 0.20 2.46 1.52 95 1007.4
20260506170005 4 16 3.2 8.0 0.20 2.44 1.47 95 1007.3
20260506165503 5 317 0.0 9.7 0.23 2.44 1.47 95 1007.5
20260506165003 5 350 0.0 9.7 0.23 2.41 1.47 95 1007.4
20260506164508 5 340 3.2 6.4 0.25 2.41 1.47 95 1007.5
20260506164005 5 294 1.6 4.8 0.25 2.39 1.45 95 1007.6
20260506163504 5 221 0.0 4.8 0.28 2.39 1.45 95 1007.6
20260506163013 5 297 1.6 4.8 0.28 2.36 1.42 95 1007.7
20260506162507 5 35 1.6 4.8 0.28 2.34 1.40 95 1007.5
20260506162007 4 285 0.0 4.8 0.28 2.34 1.40 95 1007.8
20260506161518 4 281 1.6 4.8 0.28 2.31 1.37 95 1007.9
20260506161006 4 126 0.0 3.2 0.30 2.29 1.32 95 1008.0
20260506160507 4 86 0.0 3.2 0.28 2.26 1.32 95 1007.9
20260506160020 4 254 0.0 6.4 0.28 2.24 1.30 95 1008.1
20260506155508 4 298 1.6 6.4 0.28 2.21 1.27 95 1008.1
20260506155007 4 23 1.6 6.4 0.28 2.18 1.24 95 1008.2
20260506154526 4 271 3.2 6.4 0.25 2.16 1.22 95 1008.2
20260506154003 4 295 1.6 6.4 0.25 2.13 1.19 95 1008.2
20260506153505 4 285 1.6 6.4 0.23 2.11 1.17 95 1008.1
20260506153018 4 26 0.0 6.4 0.23 2.08 1.14 95 1008.0
20260506152503 4 32 3.2 4.8 0.20 2.06 1.12 95 1008.0
20260506152005 4 281 1.6 4.8 0.20 2.06 1.12 95 1008.0
20260506151515 5 28 1.6 4.8 0.20 2.03 1.09 95 1007.9
20260506151006 5 288 3.2 4.8 0.15 1.98 1.04 95 1007.9
20260506150507 5 291 3.2 4.8 0.15 1.98 1.04 94 1007.8
20260506150017 5 290 1.6 4.8 0.13 1.96 1.02 94 1007.9
20260506145506 5 308 1.6 4.8 0.13 1.93 0.99 94 1007.8
20260506145004 5 267 0.0 1.6 0.13 1.91 0.97 95 1007.7
20260506144522 5 273 0.0 1.6 0.13 1.91 0.97 95 1007.7
20260506144008 5 284 0.0 1.6 0.13 1.88 0.94 94 1007.7
20260506143508 5 296 0.0 1.6 0.15 1.88 0.94 95 1007.8
20260506143031 5 318 0.0 0.0 0.15 1.85 0.91 95 1007.8
20260506142505 5 319 0.0 1.6 0.15 1.85 0.91 95 1007.8
20260506142003 5 318 0.0 8.0 0.18 1.85 0.91 95 1007.9
20260506141507 5 338 1.6 8.0 0.18 1.83 0.89 95 1008.0
20260506141007 5 13 1.6 8.0 0.18 1.83 0.89 95 1007.9
20260506140504 5 80 1.6 6.4 0.20 1.83 0.89 95 1007.7
20260506140017 5 303 1.6 6.4 0.20 1.83 0.89 94 1007.8
20260506135503 5 291 3.2 4.8 0.20 1.80 0.86 94 1008.0
20260506135005 5 311 1.6 6.4 0.20 1.78 0.84 95 1007.9
20260506134518 5 7 1.6 6.4 0.23 1.78 0.84 95 1007.7
20260506134011 5 288 4.8 6.4 0.20 1.75 0.81 95 1008.0
20260506133508 6 278 0.0 3.2 0.20 1.73 0.79 95 1007.6
20260506133023 5 281 0.0 3.2 0.20 1.70 0.76 95 1007.4
20260506132511 5 71 0.0 3.2 0.23 1.70 0.76 95 1007.5
20260506132010 5 352 1.6 3.2 0.23 1.68 0.74 95 1008.0
20260506131533 5 102 1.6 3.2 0.20 1.65 0.71 94 1007.7
20260506131007 6 276 0.0 11.3 0.23 1.65 0.71 94 1007.7
20260506130507 6 112 1.6 12.9 0.23 1.63 0.69 94 1007.6
20260506130012 6 281 8.0 14.5 0.23 1.63 0.69 94 1008.4
20260506125504 6 96 9.7 14.5 0.23 1.60 0.66 94 1007.5
20260506125003 6 284 3.2 8.0 0.20 1.57 0.64 95 1008.5
20260506124513 6 71 3.2 17.7 0.18 1.55 0.61 94 1008.0
20260506124010 6 162 6.4 17.7 0.18 1.55 0.61 94 1007.5
20260506123506 6 321 9.7 16.1 0.15 1.52 0.58 93 1009.1
20260506123021 6 194 1.6 4.8 0.15 1.47 0.56 95 1008.1
20260506122506 6 278 0.0 6.4 0.13 1.47 0.53 94 1008.5
20260506122009 6 26 1.6 6.4 0.10 1.45 0.51 94 1008.5
20260506121524 6 14 1.6 4.8 0.10 1.45 0.51 94 1008.6
20260506121009 6 283 1.6 4.8 0.08 1.42 0.48 94 1008.7
20260506120509 6 347 1.6 8.0 0.05 1.40 0.46 94 1008.7
20260506120024 6 337 3.2 8.0 0.05 1.40 0.46 94 1008.6
20260506115506 6 309 1.6 6.4 0.05 1.37 0.43 94 1008.7
20260506115004 6 347 3.2 4.8 0.05 1.37 0.43 94 1008.7
20260506114520 6 286 1.6 3.2 0.05 1.37 0.43 94 1008.9
20260506114003 6 352 1.6 8.0 0.05 1.37 0.43 94 1008.7
20260506113503 6 286 1.6 8.0 0.05 1.37 0.43 94 1008.7
20260506113031 6 83 3.2 11.3 0.03 1.32 0.41 93 1008.6
20260506112508 6 291 4.8 11.3 0.03 1.32 0.41 94 1008.5
20260506112005 7 295 4.8 6.4 0.03 1.32 0.41 93 1009.0
20260506111527 7 300 1.6 4.8 0.03 1.32 0.41 94 1008.8
20260506111007 7 333 0.0 3.2 0.03 1.32 0.41 93 1008.6
20260506110507 7 302 1.6 4.8 0.03 1.32 0.41 93 1008.5
20260506110006 7 108 1.6 6.4 0.03 1.32 0.41 93 1008.2
20260506105503 7 342 1.6 6.4 0.03 1.32 0.38 94 1008.2
20260506105004 7 309 1.6 3.2 0.03 1.32 0.38 94 1008.2
20260506104506 7 283 0.0 3.2 0.03 1.32 0.38 94 1008.2
20260506104002 7 286 1.6 3.2 0.03 1.32 0.38 93 1008.3
20260506103506 7 283 1.6 3.2 0.03 1.32 0.38 94 1008.1
20260506103014 8 276 1.6 1.6 0.03 1.32 0.38 94 1008.1
20260506102506 7 257 0.0 1.6 0.03 1.32 0.38 94 1008.0
20260506102004 8 257 0.0 1.6 0.03 1.32 0.38 94 1007.9
20260506101516 8 68 0.0 3.2 0.03 1.32 0.38 94 1008.0
20260506101005 7 68 0.0 3.2 0.03 1.32 0.38 94 1007.9
20260506100508 7 150 0.0 8.0 0.03 1.32 0.38 94 1008.2
20260506100023 8 107 1.6 9.7 0.03 1.32 0.38 94 1008.4
20260506095507 8 101 3.2 9.7 0.00 1.30 0.36 94 1008.2
20260506095007 8 69 4.8 11.3 0.00 1.30 0.36 94 1008.4
20260506094508 8 84 3.2 11.3 0.00 1.30 0.36 94 1008.5
20260506094003 8 285 6.4 11.3 0.00 1.30 0.36 94 1009.6
20260506093505 8 77 3.2 4.8 0.00 1.30 0.36 94 1008.6
20260506093008 8 112 3.2 8.0 0.00 1.30 0.36 94 1008.5
20260506092504 8 98 3.2 11.3 0.00 1.30 0.36 93 1008.6
20260506092007 8 86 4.8 11.3 0.00 1.30 0.36 93 1008.3
20260506091516 8 271 1.6 4.8 0.00 1.30 0.36 95 1009.0
20260506091004 8 121 0.0 4.8 0.00 1.30 0.36 94 1008.8
20260506090504 8 121 0.0 6.4 0.00 1.30 0.36 93 1008.4
20260506090023 8 258 1.6 8.0 0.00 1.30 0.36 94 1008.4
20260506085506 9 134 4.8 8.0 0.00 1.30 0.36 94 1008.4
20260506085007 9 286 3.2 6.4 0.00 1.30 0.36 94 1009.2
20260506084523 9 146 3.2 6.4 0.05 1.30 0.36 94 1008.6
20260506084012 9 105 3.2 8.0 0.05 1.30 0.36 93 1008.6
20260506083508 9 96 4.8 8.0 0.05 1.30 0.36 93 1008.7
20260506083025 10 107 1.6 3.2 0.05 1.30 0.36 94 1008.7
20260506082503 10 148 0.0 8.0 0.05 1.30 0.36 94 1009.2
20260506082005 10 146 1.6 8.0 0.05 1.30 0.36 94 1009.4
20260506081512 10 115 0.0 6.4 0.05 1.30 0.36 94 1008.7
20260506081008 10 115 0.0 6.4 0.05 1.30 0.36 94 1008.6
20260506080504 10 261 1.6 4.8 0.05 1.30 0.36 94 1009.3
20260506073509 10 94 0.0 1.6 0.08 1.24 0.30 93 1008.2
20260506073026 10 94 1.6 1.6 0.10 1.24 0.30 93 1008.5
20260506072507 10 297 0.0 1.6 0.13 1.24 0.30 93 1008.9
20260506072010 10 92 0.0 3.2 0.13 1.24 0.30 92 1008.7
20260506071525 10 93 1.6 3.2 0.13 1.24 0.30 92 1008.5
20260506071003 10 93 1.6 3.2 0.13 1.24 0.30 92 1008.6
20260506070503 10 120 1.6 3.2 0.13 1.24 0.30 92 1008.9
20260506062508 11 251 1.6 1.6 0.03 1.12 0.18 87 1008.8
20260506062009 11 290 0.0 3.2 0.03 1.12 0.18 87 1008.6
20260506061528 11 358 1.6 3.2 0.03 1.12 0.18 88 1008.7
20260506061012 10 82 0.0 3.2 0.03 1.12 0.18 89 1008.9
20260506060506 10 281 0.0 4.8 0.03 1.12 0.18 90 1009.1
20260506051005 10 84 1.6 3.2 0.13 1.09 0.15 94 1009.3
20260506050507 10 14 0.0 1.6 0.13 1.09 0.15 94 1009.6
20260506045008 10 100 3.2 6.4 0.10 1.04 0.10 93 1009.3
20260506044528 10 87 3.2 8.0 0.10 1.04 0.10 93 1009.0
20260506044007 10 104 6.4 8.0 0.13 1.04 0.10 93 1008.7
20260506043505 10 109 4.8 4.8 0.18 1.04 0.10 93 1009.0
20260506043015 10 109 3.2 6.4 0.33 1.04 0.10 93 1008.9
20260506042505 10 103 4.8 6.4 0.41 1.04 0.10 93 1008.7
20260506042006 10 110 0.0 4.8 0.38 1.02 0.08 93 1009.4
20260506041520 10 105 1.6 4.8 0.36 0.97 0.03 93 1009.0
20260506041006 10 109 1.6 4.8 0.36 0.97 0.03 92 1008.7
20260506040506 10 117 3.2 4.8 0.46 0.97 0.03 92 1008.6
20260506040024 10 79 0.0 1.6 0.48 0.94 0.00 91 1009.4
20260506035510 11 79 0.0 1.6 0.51 0.94 0.94 91 1009.2
20260506035009 11 79 0.0 1.6 0.53 0.94 0.94 91 1009.1
20260506034530 11 272 0.0 6.4 0.56 0.94 0.94 90 1009.1
20260506034002 11 275 0.0 8.0 0.53 0.91 0.91 89 1009.3
20260506033502 11 305 3.2 9.7 0.48 0.86 0.86 89 1009.4
20260506033013 11 294 4.8 9.7 0.33 0.71 0.71 89 1009.1
20260506032505 11 296 3.2 12.9 0.25 0.64 0.64 89 1008.8
20260506032009 11 301 4.8 14.5 0.28 0.64 0.64 88 1008.7
20260506031519 12 314 6.4 14.5 0.30 0.61 0.61 88 1008.8
20260506031006 12 312 3.2 9.7 0.30 0.61 0.61 89 1008.3
20260506030507 12 306 4.8 8.0 0.20 0.51 0.51 89 1008.5
20260506030035 13 300 3.2 8.0 0.15 0.46 0.46 87 1008.2
20260506025506 13 279 4.8 8.0 0.13 0.43 0.43 85 1008.2
20260506025007 13 283 6.4 8.0 0.10 0.41 0.41 84 1008.1
20260506024546 13 288 1.6 6.4 0.08 0.38 0.38 84 1007.9
20260506024009 13 284 3.2 6.4 0.08 0.38 0.38 84 1007.8
20260506023508 13 279 1.6 6.4 0.08 0.38 0.38 84 1007.9
20260506023013 13 285 3.2 6.4 0.08 0.38 0.38 83 1008.1
20260506022509 14 281 3.2 6.4 0.08 0.38 0.38 81 1008.1
20260506022002 15 263 3.2 6.4 0.05 0.36 0.36 78 1008.0
20260506021514 15 275 3.2 12.9 0.00 0.30 0.30 76 1007.9
20260506021008 15 258 3.2 12.9 0.00 0.30 0.30 75 1007.8
20260506020508 15 253 3.2 9.7 0.00 0.30 0.30 75 1007.7
20260506020018 15 276 4.8 12.9 0.00 0.30 0.30 75 1007.7
20260506015506 15 293 6.4 12.9 0.00 0.30 0.30 74 1007.7
20260506015007 15 289 6.4 17.7 0.00 0.30 0.30 74 1007.9
20260506014524 15 245 6.4 17.7 0.00 0.30 0.30 73 1007.9
20260506014006 15 273 8.0 14.5 0.00 0.30 0.30 74 1007.9
20260506013511 15 292 6.4 11.3 0.00 0.30 0.30 75 1007.8
20260506013038 15 265 4.8 8.0 0.00 0.30 0.30 76 1007.7
20260506012508 15 283 4.8 8.0 0.00 0.30 0.30 75 1007.5
20260506012009 14 259 0.0 1.6 0.00 0.30 0.30 76 1007.3
20260506011513 14 124 0.0 4.8 0.00 0.30 0.30 77 1007.2
20260506011004 14 124 0.0 4.8 0.00 0.30 0.30 78 1007.1
20260506010505 14 129 0.0 1.6 0.00 0.30 0.30 78 1007.3
20260506010023 14 84 0.0 1.6 0.00 0.30 0.30 78 1007.3
20260506005506 14 100 0.0 1.6 0.00 0.30 0.30 78 1007.2
20260506005006 14 79 0.0 3.2 0.00 0.30 0.30 77 1007.2
20260506004520 14 79 0.0 3.2 0.00 0.30 0.30 77 1007.0
20260506004008 14 95 1.6 3.2 0.00 0.30 0.30 77 1006.8
20260506003506 14 96 1.6 3.2 0.00 0.30 0.30 77 1006.9
20260506003028 14 91 1.6 3.2 0.00 0.30 0.30 77 1006.8
20260506002508 14 74 1.6 3.2 0.00 0.30 0.30 78 1006.9
20260506002010 14 47 0.0 3.2 0.00 0.30 0.30 78 1006.9
20260506001526 15 96 0.0 3.2 0.00 0.30 0.30 77 1006.9
20260506001009 15 126 0.0 3.2 0.00 0.30 0.30 76 1006.9
20260506000511 15 251 0.0 1.6 0.00 0.30 0.30 74 1006.8
20260506000026 15 252 0.0 4.8 0.00 0.30 0.30 73 1006.7
20260505235506 16 252 0.0 8.0 0.00 0.30 0.30 72 1006.7
20260505235005 16 281 3.2 9.7 0.00 0.30 0.30 71 1006.7
20260505234516 15 279 3.2 9.7 0.00 0.30 0.30 73 1006.7
20260505234008 15 271 4.8 9.7 0.00 0.30 0.30 73 1006.7
20260505233505 15 281 4.8 11.3 0.00 0.30 0.30 73 1006.7
20260505233022 15 268 4.8 16.1 0.00 0.30 0.30 74 1006.7
20260505232508 15 264 6.4 16.1 0.00 0.30 0.30 73 1006.7
20260505232007 15 274 8.0 16.1 0.00 0.30 0.30 73 1006.4
20260505231523 15 274 8.0 12.9 0.00 0.30 0.30 74 1006.2
20260505231009 15 288 8.0 11.3 0.00 0.30 0.30 74 1006.1
20260505230508 15 281 8.0 12.9 0.00 0.30 0.30 75 1006.1
20260505230040 15 280 6.4 16.1 0.00 0.30 0.30 75 1006.1
20260505225511 15 278 8.0 16.1 0.00 0.30 0.30 77 1006.0
20260505225011 15 302 8.0 14.5 0.00 0.30 0.30 77 1006.1
20260505224528 15 285 8.0 14.5 0.00 0.30 0.30 77 1006.2
20260505224006 15 295 8.0 16.1 0.00 0.30 0.30 78 1006.1
20260505223505 15 293 8.0 17.7 0.00 0.30 0.30 78 1006.0
20260505223016 15 277 8.0 17.7 0.00 0.30 0.30 76 1006.1
20260505222506 14 274 9.7 17.7 0.00 0.30 0.30 81 1006.2
20260505222009 15 283 4.8 17.7 0.03 0.30 0.30 81 1006.4
20260505221520 15 263 9.7 20.9 0.03 0.30 0.30 79 1006.4
20260505221006 15 286 9.7 20.9 0.03 0.30 0.30 78 1006.2
20260505220506 15 280 11.3 22.5 0.05 0.30 0.30 77 1006.2
20260505220023 15 269 11.3 22.5 0.05 0.30 0.30 78 1006.2
20260505215509 15 283 9.7 19.3 0.05 0.30 0.30 80 1006.4
20260505215006 15 284 8.0 19.3 0.05 0.30 0.30 80 1006.1
20260505214526 14 260 11.3 17.7 0.08 0.30 0.30 82 1006.0
20260505214012 14 274 8.0 19.3 0.08 0.30 0.30 83 1006.2
20260505213510 14 302 11.3 19.3 0.08 0.30 0.30 82 1005.9
20260505213033 14 281 11.3 16.1 0.08 0.30 0.30 83 1005.9
20260505212507 14 294 8.0 12.9 0.08 0.30 0.30 83 1006.1